Hauptseite
METAR-TAF:

METAR-TAF

Flughäfen :

Laupheim, Deutschland

Flugplatz Laupheim

Breite: 48-13N, Länge: 009-55E, Höhe: 538 m

Beobachtung

Neuester Wetterbericht von vor 1 Stunde und 2 Minuten, um 23:20 UTC
Wind 5 kt aus Südwest
Temperatur 2°C
Luftfeuchtigkeit 87%
Luftdruck 1022 hPa
Sichtweite 10 km oder mehr
Durchbrochene Bewölkung in der Höhe von 6000 ft

METAR: ETHL 192320Z 22005KT 9999 BKN060 02/M00 Q1022 BLU

Zeit: 01:22 (00:22 UTC)


TAF: fehlend

Wetterbeobachtungen und Prognosen von mehr als 4000 Flughäfen (METAR und TAF Bericht).

Die verfügbaren Stationen werden durch gelbe und rote Markierungen auf der Karte dargestellt.

Führen Sie die Maus auf sie, um den Namen der Station zu sehen.

Darauf klicken, um die Beobachtung von Wetterbeobachtungen und Prognosen zu sehen.

Um die Karte zu ändern : klicken Sie auf den grünen Tasten mit einem schwarzen Kreuz Zum Vergrößern, auf den grünen Button mit einem Gedankenstrich zu verkleinern, oder auf die grünen Pfeile für benachbarte Karten.


METAR-TAF: